Weather History for Princeton, MN

Change the Weather History Date:

Tuesday, September 2, 2014

  Actual Average Record
Temperature  
Mean Temperature 66 °F -  
Max Temperature 78 °F 75 °F 87 °F (2003)
Min Temperature 53 °F 52 °F 6 °F (1998)
Growing Degree Days 16 (Base 50)    
Moisture  
Dew Point 54 °F    
Average Humidity 70    
Maximum Humidity 100    
Minimum Humidity 34    
Precipitation  
Precipitation 0.00 in - - ()
Sea Level Pressure  
Sea Level Pressure 29.86 in    
Wind  
Wind Speed 3 mph (SW)    
Max Wind Speed 10 mph    
Max Gust Speed 17 mph    
Visibility 10 miles    
Events      
Averages and records for this station are not official NWS values.
T = Trace of Precipitation, MM = Missing Value Source: NWS Daily Summary

Daily Weather History Graph

Daily Weather History Graph

Search for Another Location

Airport:

Trip Planner

Search our weather history database for the weather conditions in past years. The results will help you decide how hot, cold, wet, or windy it might be!

Date:

Astronomy

Sep. 02, 2014 Rise Set
Actual Time 6:36 AM CDT 7:50 PM CDT
Civil Twilight 6:06 AM CDT 8:20 PM CDT
Nautical Twilight 5:29 AM CDT 8:57 PM CDT
Astronomical Twilight 4:50 AM CDT 9:36 PM CDT
Moon 2:43 PM CDT (9/2) No Moon Set
Length of Visible Light 14h 14m
Length of Day
13h 13m
First Quarter, 53% of the Moon is Illuminated
Sep 2
First Quarter
Sep 8
Full
Sep 15
Last Quarter
Sep 24
New
Oct 1
First Quarter

Hourly Weather History & Observations

Time (CDT) Temp. Dew Point Humidity Pressure Visibility Wind Dir Wind Speed Gust Speed Precip Events Conditions
12:01 AM 57.2 °F 55.4 °F 94% 29.81 in 10.0 mi West 2.3 mph - N/A   Clear
12:21 AM 57.2 °F 55.4 °F 94% 29.81 in 10.0 mi South 1.2 mph - N/A   Clear
12:41 AM 57.2 °F 55.4 °F 94% 29.81 in 10.0 mi SSW 3.5 mph - N/A   Clear
1:01 AM 57.2 °F 55.4 °F 94% 29.81 in 10.0 mi Calm Calm - N/A   Clear
1:21 AM 59.0 °F 55.4 °F 88% 29.81 in 10.0 mi SSW 1.2 mph - N/A   Scattered Clouds
1:41 AM 57.2 °F 55.4 °F 94% 29.81 in 10.0 mi Calm Calm - N/A   Scattered Clouds
2:01 AM 57.2 °F 55.4 °F 94% 29.80 in 10.0 mi South 1.2 mph - N/A   Clear
2:21 AM 57.2 °F 55.4 °F 94% 29.81 in 10.0 mi SSW 3.5 mph - N/A   Clear
2:41 AM 59.0 °F 55.4 °F 88% 29.81 in 10.0 mi SSW 2.3 mph - N/A   Clear
3:01 AM 59.0 °F 55.4 °F 88% 29.82 in 10.0 mi West 2.3 mph - N/A   Clear
3:21 AM 59.0 °F 55.4 °F 88% 29.82 in 10.0 mi WSW 2.3 mph - N/A   Clear
3:41 AM 59.0 °F 55.4 °F 88% 29.83 in 10.0 mi SW 1.2 mph - N/A   Clear
4:01 AM 59.0 °F 55.4 °F 88% 29.84 in 10.0 mi Calm Calm - N/A   Clear
4:21 AM 57.2 °F 55.4 °F 94% 29.85 in 10.0 mi WNW 1.2 mph - N/A   Clear
4:41 AM 57.2 °F 55.4 °F 94% 29.85 in 10.0 mi Calm Calm - N/A   Clear
5:01 AM 57.2 °F 55.4 °F 94% 29.84 in 10.0 mi Calm Calm - N/A   Clear
5:21 AM 57.2 °F 55.4 °F 94% 29.85 in 10.0 mi Calm Calm - N/A   Clear
5:41 AM 55.4 °F 53.6 °F 94% 29.85 in 10.0 mi Calm Calm - N/A   Clear
6:01 AM 55.4 °F 53.6 °F 94% 29.85 in 10.0 mi Calm Calm - N/A   Clear
6:21 AM 55.4 °F 53.6 °F 94% 29.85 in 1.0 mi Calm Calm - N/A   Clear
6:41 AM 53.6 °F 53.6 °F 100% 29.85 in 7.0 mi SSE 1.2 mph - N/A   Clear
7:01 AM 53.6 °F 51.8 °F 94% 29.86 in 10.0 mi South 2.3 mph - N/A   Clear
7:21 AM 53.6 °F 51.8 °F 94% 29.87 in 10.0 mi SSW 1.2 mph - N/A   Clear
7:41 AM 55.4 °F 55.4 °F 100% 29.87 in 10.0 mi West 1.2 mph - N/A   Clear
8:01 AM 57.2 °F 55.4 °F 94% 29.87 in 10.0 mi WSW 2.3 mph - N/A   Clear
8:21 AM 60.8 °F 57.2 °F 88% 29.87 in 10.0 mi WSW 1.2 mph - N/A   Clear
8:41 AM 62.6 °F 57.2 °F 82% 29.88 in 10.0 mi West 3.5 mph - N/A   Clear
9:01 AM 64.4 °F 57.2 °F 77% 29.88 in 10.0 mi West 3.5 mph - N/A   Clear
9:21 AM 66.2 °F 57.2 °F 73% 29.89 in 10.0 mi West 3.5 mph - N/A   Clear
9:41 AM 68.0 °F 57.2 °F 68% 29.88 in 10.0 mi West 3.5 mph - N/A   Clear
10:01 AM 69.8 °F 57.2 °F 64% 29.88 in 10.0 mi West 2.3 mph - N/A   Clear
10:21 AM 71.6 °F 57.2 °F 60% 29.88 in 10.0 mi West 4.6 mph - N/A   Clear
10:41 AM 71.6 °F 55.4 °F 57% 29.88 in 10.0 mi WSW 5.8 mph - N/A   Clear
11:21 AM 73.4 °F 53.6 °F 50% 29.89 in 10.0 mi SW 5.8 mph - N/A   Clear
11:41 AM 75.2 °F 53.6 °F 47% 29.89 in 10.0 mi WSW 4.6 mph - N/A   Clear
12:01 PM 75.2 °F 53.6 °F 47% 29.88 in 10.0 mi West 5.8 mph - N/A   Unknown
12:21 PM 75.2 °F 51.8 °F 44% 29.89 in 10.0 mi SW 5.8 mph - N/A   Clear
1:01 PM 77.0 °F 51.8 °F 41% 29.88 in 10.0 mi SW 4.6 mph - N/A   Clear
1:21 PM 77.0 °F 51.8 °F 41% 29.88 in 10.0 mi SW 8.1 mph - N/A   Clear
1:41 PM 77.0 °F 51.8 °F 41% 29.88 in 10.0 mi SW 9.2 mph - N/A   Scattered Clouds
2:01 PM 78.8 °F 51.8 °F 39% 29.88 in 10.0 mi WSW 9.2 mph - N/A   Scattered Clouds
2:21 PM 78.8 °F 51.8 °F 39% 29.88 in 10.0 mi WSW 8.1 mph - N/A   Clear
2:41 PM 78.8 °F 50.0 °F 36% 29.88 in 10.0 mi SW 6.9 mph - N/A   Clear
3:01 PM 78.8 °F 51.8 °F 39% 29.88 in 10.0 mi SSW 8.1 mph - N/A   Clear
3:21 PM 78.8 °F 50.0 °F 36% 29.87 in 10.0 mi SSW 6.9 mph - N/A   Clear
3:41 PM 78.8 °F 51.8 °F 39% 29.87 in 10.0 mi SSW 9.2 mph - N/A   Clear
4:01 PM 78.8 °F 51.8 °F 39% 29.87 in 10.0 mi SW 10.4 mph - N/A   Clear
4:21 PM 78.8 °F 51.8 °F 39% 29.87 in 10.0 mi SW 9.2 mph 17.3 mph N/A   Clear
4:41 PM 78.8 °F 48.2 °F 34% 29.87 in 10.0 mi SW 10.4 mph 17.3 mph N/A   Clear
5:01 PM 77.0 °F 51.8 °F 41% 29.87 in 10.0 mi SW 10.4 mph - N/A   Clear
5:41 PM 77.0 °F 51.8 °F 41% 29.87 in 10.0 mi SSW 6.9 mph 16.1 mph N/A   Clear
6:01 PM 77.0 °F 51.8 °F 41% 29.86 in 10.0 mi SSW 9.2 mph - N/A   Clear
6:21 PM 75.2 °F 51.8 °F 44% 29.86 in 10.0 mi SW 9.2 mph - N/A   Clear
6:41 PM 75.2 °F 53.6 °F 47% 29.85 in 10.0 mi SSW 4.6 mph - N/A   Clear
7:01 PM 73.4 °F 55.4 °F 53% 29.85 in 10.0 mi South 3.5 mph - N/A   Clear
7:21 PM 71.6 °F 55.4 °F 57% 29.85 in 10.0 mi South 3.5 mph - N/A   Clear
7:41 PM 69.8 °F 55.4 °F 60% 29.85 in 10.0 mi South 3.5 mph - N/A   Clear
8:01 PM 68.0 °F 55.4 °F 64% 29.85 in 10.0 mi South 3.5 mph - N/A   Clear
8:21 PM 66.2 °F 55.4 °F 68% 29.85 in 10.0 mi South 3.5 mph - N/A   Clear
8:41 PM 66.2 °F 55.4 °F 68% 29.85 in 10.0 mi South 3.5 mph - N/A   Clear
9:01 PM 66.2 °F 55.4 °F 68% 29.85 in 10.0 mi South 4.6 mph - N/A   Clear
9:21 PM 64.4 °F 55.4 °F 73% 29.85 in 10.0 mi South 3.5 mph - N/A   Clear
9:41 PM 66.2 °F 57.2 °F 73% 29.85 in 10.0 mi South 4.6 mph - N/A   Clear
10:01 PM 64.4 °F 57.2 °F 77% 29.85 in 10.0 mi South 5.8 mph - N/A   Clear
10:21 PM 64.4 °F 57.2 °F 77% 29.85 in 10.0 mi South 4.6 mph - N/A   Clear
10:41 PM 64.4 °F 57.2 °F 77% 29.85 in 10.0 mi South 3.5 mph - N/A   Clear
11:01 PM 64.4 °F 57.2 °F 77% 29.85 in 10.0 mi South 4.6 mph - N/A   Clear
11:21 PM 64.4 °F 57.2 °F 77% 29.85 in 10.0 mi South 3.5 mph - N/A   Clear
11:41 PM 64.4 °F 57.2 °F 77% 29.86 in 10.0 mi South 3.5 mph - N/A   Clear